Rochester, Indiana, United States (46975)
Lat: 41.06N, Lon: 86.22W
Wx Zone: INZ015
Local Info
Past Weather Observations for Today

NOTE: This archive is for the closest National Weather Service station to Rochester. Information may differ from the station used for current weather conditions.

Click here for Long-term Archive

Time Weather Temperature Dewpoint Humidity Pressure Winds Precip Visibility
10:35
Clear
18°F / -8°C 1°F / -17°C 49% 30.39 in
(1029 mb)
Calm - 10SM
10:15
Clear
16°F / -9°C 1°F / -17°C 53% 30.39 in
(1029 mb)
Calm - 10SM
09:55
Clear
14°F / -10°C 1°F / -17°C 57% 30.39 in
(1029 mb)
NNE 5.8 mph
(NNE 9 kph)
- 10SM
09:35
Clear
16°F / -9°C 1°F / -17°C 53% 30.39 in
(1029 mb)
Calm - 10SM
09:15
Clear
14°F / -10°C 1°F / -17°C 57% 30.39 in
(1029 mb)
Calm - 10SM
08:55
Clear
14°F / -10°C 3°F / -16°C 62% 30.39 in
(1029 mb)
Calm - 10SM
08:35
Clear
12°F / -11°C 5°F / -15°C 73% 30.36 in
(1028 mb)
Calm - 10SM
08:15
Partly Cloudy
12°F / -11°C 3°F / -16°C 67% 30.36 in
(1028 mb)
Calm - 10SM
07:55
Partly Cloudy
12°F / -11°C 3°F / -16°C 67% 30.36 in
(1028 mb)
Calm - 10SM
07:35
Partly Cloudy
12°F / -11°C 3°F / -16°C 67% 30.36 in
(1028 mb)
Calm - 10SM
07:15
Clear
10°F / -12°C 3°F / -16°C 72% 30.33 in
(1027 mb)
Calm - 10SM
06:55
Clear
10°F / -12°C 3°F / -16°C 72% 30.36 in
(1028 mb)
Calm - 10SM
06:35
Partly Cloudy
10°F / -12°C 3°F / -16°C 72% 30.36 in
(1028 mb)
Calm - 10SM
06:15
Mostly Cloudy
12°F / -11°C 3°F / -16°C 67% 30.33 in
(1027 mb)
Calm - 10SM
05:55
Overcast
12°F / -11°C 3°F / -16°C 67% 30.33 in
(1027 mb)
Calm - 10SM
05:35
Overcast
12°F / -11°C 3°F / -16°C 67% 30.33 in
(1027 mb)
ENE 3.5 mph
(ENE 6 kph)
- 10SM
05:15
Mostly Cloudy
12°F / -11°C 3°F / -16°C 67% 30.33 in
(1027 mb)
NE 3.5 mph
(NE 6 kph)
- 10SM
04:55
Partly Cloudy
12°F / -11°C 3°F / -16°C 67% 30.3 in
(1026 mb)
Calm - 10SM
04:35
Partly Cloudy
14°F / -10°C 3°F / -16°C 62% 30.3 in
(1026 mb)
NNE 3.5 mph
(NNE 6 kph)
- 10SM
04:15
Partly Cloudy
14°F / -10°C 3°F / -16°C 62% 30.3 in
(1026 mb)
NNE 4.6 mph
(NNE 7 kph)
- 10SM
03:55
Mostly Cloudy
14°F / -10°C 5°F / -15°C 67% 30.3 in
(1026 mb)
NNE 5.8 mph
(NNE 9 kph)
- 10SM
03:35
Mostly Cloudy
14°F / -10°C 5°F / -15°C 67% 30.3 in
(1026 mb)
NE 5.8 mph
(NE 9 kph)
- 10SM
03:15
Partly Cloudy
14°F / -10°C 5°F / -15°C 67% 30.3 in
(1026 mb)
N 5.8 mph
(N 9 kph)
- 10SM
02:55
Mostly Cloudy
16°F / -9°C 7°F / -14°C 67% 30.3 in
(1026 mb)
N 6.9 mph
(N 11 kph)
- 10SM
02:35
Overcast
18°F / -8°C 9°F / -13°C 68% 30.3 in
(1026 mb)
NE 9.2 mph
(NE 15 kph)
- 10SM
02:15
Overcast
18°F / -8°C 9°F / -13°C 68% 30.3 in
(1026 mb)
NNW 5.8 mph
(NNW 9 kph)
- 10SM
01:55
Overcast
18°F / -8°C 9°F / -13°C 68% 30.27 in
(1025 mb)
NNW 5.8 mph
(NNW 9 kph)
- 10SM
01:35
Mostly Cloudy
18°F / -8°C 7°F / -14°C 62% 30.27 in
(1025 mb)
NNW 6.9 mph
(NNW 11 kph)
- 10SM
01:15
Partly Cloudy
18°F / -8°C 5°F / -15°C 58% 30.27 in
(1025 mb)
NW 6.9 mph
(NW 11 kph)
- 10SM
00:55
Clear
19°F / -7°C 7°F / -14°C 58% 30.27 in
(1025 mb)
NW 9.2 mph
(NW 15 kph)
- 10SM
00:35
Clear
19°F / -7°C 7°F / -14°C 58% 30.27 in
(1025 mb)
NW 8.1 mph
(NW 13 kph)
- 10SM
00:15
Clear
19°F / -7°C 7°F / -14°C 58% 30.27 in
(1025 mb)
NW 8.1 mph
(NW 13 kph)
- 10SM
Time Weather Temperature Dewpoint Humidity Pressure Winds Precip Visibility


Weather for websites

WeatherForYou.com, LLC is not responsible for any damages or problems caused by this service. Current weather conditions are obtained from the closest station including government and personal stations which may have varying degrees of accuracy. Weather forecasts are derived from the NOAA NDFD. Like all things, this site belongs to Jesus Christ... He just trusts me to maintain it. If you have any questions or comments email webmaster@weatherforyou.com

Copyright © 2015, WeatherForYou.com LLC. All rights reserved.